Location: Austin
(30.3000°N, 97.7500°W)
Time: 23:33:41
(UTC-05:00)

Lacrosse 5 rocket - Pass Details

Date: 06 May 2026
Orbit: 390 x 472 km, 57.0° (Epoch: 13 May)

Event Time Altitude Azimuth Distance (km) Brightness Sun altitude
Rises 21:07:10 0° 312° (NW) 2,276 6.2 -11.7°
Reaches altitude 10° 21:09:20 10° 302° (WNW) 1,420 5.0 -12.1°
Maximum altitude 21:12:11 32° 237° (WSW) 703 2.2 -12.6°
Enters shadow 21:14:55 11° 173° (S) 1,379 3.0 -13.1°
